�N����,����,�~����,�C��,���x,�C��,����,���ϕ���,�ő�u�ԕ���,�ő厞����,���˗�,�I�_���x,�n�����x,�ő啗���N��,DTYPE
"22/09/26","00:10",0.0,19.4,88.0,1010.7,311.0,1.3,2.2,311.3,0.00,17.4,23.0,"00:07:52",1
"22/09/26","00:20",0.0,19.4,88.1,1010.7,307.1,0.8,1.6,323.4,0.00,17.4,22.8,"00:11:44",1
"22/09/26","00:30",0.0,19.3,88.3,1010.9,316.5,0.6,1.2,330.2,0.00,17.4,22.9,"00:28:24",1
"22/09/26","00:40",0.0,19.1,88.4,1010.7,290.7,0.6,1.1,336.1,0.00,17.2,22.8,"00:30:08",1
"22/09/26","00:50",0.0,19.1,88.8,1010.7,325.3,1.2,1.8,343.0,0.00,17.2,22.8,"00:48:40",1
"22/09/26","01:00",0.0,19.0,89.1,1010.7,316.7,1.1,1.7,338.7,0.00,17.2,22.7,"00:50:08",1
"22/09/26","01:10",0.0,19.0,89.4,1010.7,297.2,1.0,1.6,310.2,0.00,17.3,22.7,"01:05:20",1
"22/09/26","01:20",0.0,18.9,89.6,1010.9,320.7,1.2,1.7,334.3,0.00,17.2,22.6,"01:16:56",1
"22/09/26","01:30",0.0,18.7,89.8,1010.9,298.7,1.0,1.3,314.7,0.00,17.0,22.6,"01:29:28",1
"22/09/26","01:40",0.0,18.7,90.2,1011.2,311.5,1.3,2.1,314.3,0.00,17.1,22.7,"01:37:52",1
"22/09/26","01:50",0.0,18.6,90.4,1010.4,292.8,1.1,1.8,318.7,0.00,17.0,22.6,"01:40:08",1
"22/09/26","02:00",0.0,18.4,90.7,1010.9,290.0,1.0,1.7,322.3,0.00,16.9,22.7,"01:56:40",1
"22/09/26","02:10",0.0,18.4,91.0,1010.9,307.1,1.2,2.0,328.7,0.00,16.9,22.6,"02:07:12",1
"22/09/26","02:20",0.0,18.4,91.1,1010.7,299.1,1.1,1.6,321.9,0.00,17.0,22.4,"02:10:56",1
"22/09/26","02:30",0.0,18.4,91.3,1010.7,300.1,1.2,1.9,308.1,0.00,17.0,22.5,"02:20:08",1
"22/09/26","02:40",0.0,18.2,91.4,1010.7,298.1,1.0,1.6,315.8,0.00,16.8,22.4,"02:32:00",1
"22/09/26","02:50",0.0,18.1,91.6,1010.9,293.0,1.1,1.4,260.7,0.00,16.8,22.6,"02:44:26",1
"22/09/26","03:00",0.0,18.0,91.7,1010.7,325.0,1.2,1.7,328.1,0.00,16.7,22.5,"02:56:34",1
"22/09/26","03:10",0.0,17.7,92.0,1011.2,307.1,1.2,1.6,325.3,0.00,16.4,22.4,"03:07:44",1
"22/09/26","03:20",0.0,17.8,92.2,1010.9,304.9,1.3,2.1,299.4,0.00,16.6,22.5,"03:16:08",1
"22/09/26","03:30",0.0,17.8,92.4,1010.9,303.5,1.2,2.1,307.8,0.00,16.6,22.2,"03:29:12",1
"22/09/26","03:40",0.0,17.8,92.5,1010.7,320.5,1.3,1.9,316.1,0.00,16.6,22.5,"03:30:24",1
"22/09/26","03:50",0.0,17.7,92.8,1010.9,291.9,1.0,1.7,307.0,0.00,16.6,22.3,"03:44:24",1
"22/09/26","04:00",0.0,17.9,93.0,1010.7,272.3,1.1,1.6,269.2,0.00,16.8,22.4,"03:58:24",1
"22/09/26","04:10",0.0,18.0,93.0,1010.7,296.6,1.1,1.8,305.3,0.00,16.9,22.3,"04:02:32",1
"22/09/26","04:20",0.0,17.8,93.1,1010.7,320.3,1.2,1.7,322.2,0.00,16.7,22.2,"04:16:48",1
"22/09/26","04:30",0.0,17.6,93.3,1010.9,324.4,1.3,1.8,319.0,0.00,16.5,22.4,"04:26:00",1
"22/09/26","04:40",0.0,17.3,93.4,1010.9,306.8,1.1,1.7,333.9,0.00,16.3,22.2,"04:32:48",1
"22/09/26","04:50",0.0,17.1,93.6,1011.4,285.2,1.0,1.4,310.4,0.00,16.1,22.2,"04:49:28",1
"22/09/26","05:00",0.0,17.1,93.7,1010.9,314.4,1.2,1.6,315.6,0.00,16.1,22.1,"04:52:40",1
"22/09/26","05:10",0.0,16.9,93.8,1010.7,295.9,0.7,1.4,314.3,0.00,15.9,22.1,"05:01:20",1
"22/09/26","05:20",0.0,16.6,93.9,1010.9,290.2,0.7,1.0,288.5,0.00,15.7,22.0,"05:10:08",1
"22/09/26","05:30",0.0,16.7,94.1,1010.9,314.5,1.2,1.7,318.0,0.00,15.8,22.1,"05:22:32",1
"22/09/26","05:40",0.0,16.6,94.2,1010.9,301.6,1.0,1.3,323.9,0.00,15.7,22.1,"05:30:16",1
"22/09/26","05:50",0.0,16.6,94.3,1010.9,312.9,1.2,1.6,328.7,0.00,15.7,22.1,"05:45:20",1
"22/09/26","06:00",0.0,16.7,94.3,1010.9,290.3,0.7,1.3,308.6,0.00,15.8,21.9,"05:52:16",1
"22/09/26","06:10",0.0,16.8,94.4,1010.9,313.9,1.0,1.4,322.1,0.00,15.9,21.9,"06:03:20",1
"22/09/26","06:20",0.0,16.7,94.5,1010.9,320.8,1.5,2.1,313.8,0.00,15.9,21.8,"06:10:40",1
"22/09/26","06:30",0.0,16.6,94.6,1011.2,297.2,0.7,1.3,322.0,0.00,15.8,21.9,"06:20:24",1
"22/09/26","06:40",0.0,16.8,94.9,1011.4,302.0,1.0,2.1,325.2,0.00,16.0,21.9,"06:39:36",1
"22/09/26","06:50",0.0,17.3,94.8,1011.2,320.0,1.0,1.9,309.8,0.00,16.5,21.8,"06:40:16",1
"22/09/26","07:00",0.0,17.6,94.7,1011.4,312.2,0.3,0.8,315.5,0.00,16.8,21.7,"06:50:08",1
"22/09/26","07:10",0.0,18.1,94.7,1011.6,308.3,0.2,1.0,353.5,0.00,17.3,21.7,"07:08:40",1
"22/09/26","07:20",0.0,18.4,94.8,1011.6,330.9,1.0,1.2,339.0,0.01,17.6,21.7,"07:10:08",1
"22/09/26","07:30",0.0,19.1,94.9,1011.6,317.2,0.5,1.3,332.2,0.02,18.3,21.7,"07:20:32",1
"22/09/26","07:40",0.0,20.2,94.8,1011.9,302.2,0.1,0.5,339.3,0.04,19.4,21.7,"07:38:00",1
"22/09/26","07:50",0.0,20.2,94.5,1011.4,91.0,0.2,1.0,98.6,0.03,19.3,21.7,"07:44:00",1
"22/09/26","08:00",0.0,20.8,94.5,1011.4,40.6,0.2,1.0,317.4,0.09,19.9,21.7,"07:57:04",1
"22/09/26","08:10",0.0,20.9,92.8,1011.6,354.8,0.7,1.3,351.8,0.08,19.7,21.7,"08:09:36",1
"22/09/26","08:20",0.0,21.3,92.7,1012.1,344.1,0.6,1.3,347.9,0.11,20.1,21.7,"08:10:08",1
"22/09/26","08:30",0.0,22.0,91.5,1012.1,355.1,0.3,1.3,335.0,0.14,20.6,21.8,"08:20:02",1
"22/09/26","08:40",0.0,22.4,90.4,1011.6,344.0,0.5,1.4,335.8,0.13,20.8,21.5,"08:30:24",1
"22/09/26","08:50",0.0,23.1,87.5,1011.6,349.8,0.7,1.3,347.7,0.22,21.0,21.6,"08:44:16",1
"22/09/26","09:00",0.0,24.4,83.8,1011.6,37.5,0.3,0.9,28.7,0.25,21.5,21.6,"08:53:52",1
"22/09/26","09:10",0.0,24.9,77.8,1010.9,114.3,0.5,1.2,76.5,0.27,20.8,21.7,"09:01:52",1
"22/09/26","09:20",0.0,25.4,73.7,1011.2,198.4,0.5,1.7,206.9,0.30,20.4,21.7,"09:12:48",1
"22/09/26","09:30",0.0,25.7,71.6,1010.4,223.3,0.8,2.0,235.3,0.32,20.2,21.7,"09:28:16",1
"22/09/26","09:40",0.0,26.1,69.7,1009.7,134.1,0.6,1.8,118.9,0.34,20.2,21.7,"09:33:36",1
"22/09/26","09:50",0.0,27.0,67.2,1010.2,117.1,0.5,1.6,158.3,0.36,20.4,21.8,"09:49:52",1
"22/09/26","10:00",0.0,27.1,66.8,1010.4,165.2,0.8,1.9,214.8,0.38,20.4,21.9,"09:50:16",1
"22/09/26","10:10",0.0,27.6,64.1,1010.4,92.8,0.5,1.2,344.7,0.40,20.2,21.9,"10:06:48",1
"22/09/26","10:20",0.0,27.8,61.8,1010.9,132.1,1.0,2.7,199.8,0.42,19.8,22.1,"10:18:40",1
"22/09/26","10:30",0.0,27.6,61.6,1010.7,208.2,1.3,2.2,225.0,0.45,19.6,22.1,"10:28:48",1
"22/09/26","10:40",0.0,28.1,61.1,1010.7,139.8,1.1,2.2,136.2,0.45,19.9,22.2,"10:36:48",1
"22/09/26","10:50",0.0,28.8,59.6,1010.7,101.6,0.8,1.9,94.9,0.47,20.2,22.1,"10:42:00",1
"22/09/26","11:00",0.0,29.2,58.8,1010.9,129.3,0.6,1.7,359.4,0.44,20.4,22.2,"10:50:02",1
"22/09/26","11:10",0.0,29.4,58.4,1010.7,40.2,1.0,2.0,345.1,0.47,20.4,22.5,"11:04:00",1
"22/09/26","11:20",0.0,29.7,57.7,1010.4,96.0,0.5,1.4,65.7,0.41,20.5,22.4,"11:11:52",1
"22/09/26","11:30",0.0,30.0,58.2,1010.7,170.4,1.0,2.0,180.2,0.50,20.9,22.6,"11:26:56",1
"22/09/26","11:40",0.0,30.1,58.0,1010.7,206.1,0.8,3.3,203.0,0.51,21.0,22.5,"11:35:04",1
"22/09/26","11:50",0.0,29.4,59.5,1010.4,207.1,2.1,4.8,206.1,0.51,20.7,22.9,"11:44:16",1
"22/09/26","12:00",0.0,29.8,59.9,1010.2,143.0,1.1,2.1,234.8,0.52,21.2,22.8,"11:50:24",1
"22/09/26","12:10",0.0,30.4,56.6,1010.4,114.3,0.7,1.7,124.9,0.52,20.9,23.0,"12:03:44",1
"22/09/26","12:20",0.0,30.4,55.9,1010.2,206.3,1.3,3.1,189.5,0.54,20.6,23.0,"12:15:28",1
"22/09/26","12:30",0.0,30.7,58.1,1010.2,227.4,1.3,3.2,228.8,0.52,21.6,23.2,"12:24:56",1
"22/09/26","12:40",0.0,31.0,55.9,1010.2,104.8,0.8,2.2,356.3,0.53,21.2,23.1,"12:36:16",1
"22/09/26","12:50",0.0,30.9,53.9,1010.0,198.4,1.1,4.0,214.4,0.53,20.5,23.4,"12:40:02",1
"22/09/26","13:00",0.0,31.1,55.4,1010.0,173.9,1.1,2.8,194.9,0.56,21.2,23.4,"12:52:48",1
"22/09/26","13:10",0.0,31.3,53.7,1010.0,220.5,0.8,2.6,230.0,0.44,20.8,23.3,"13:07:52",1
"22/09/26","13:20",0.0,31.0,54.0,1009.7,225.2,1.1,2.9,242.2,0.50,20.6,23.4,"13:11:36",1
"22/09/26","13:30",0.0,31.1,55.3,1009.5,259.4,0.6,1.8,356.5,0.41,21.1,23.5,"13:29:52",1
"22/09/26","13:40",0.0,31.8,53.1,1009.5,312.8,0.5,1.9,334.1,0.50,21.1,23.9,"13:30:24",1
"22/09/26","13:50",0.0,31.8,51.2,1009.3,116.8,1.0,2.6,140.0,0.49,20.5,23.7,"13:45:04",1
"22/09/26","14:00",0.0,32.2,51.2,1009.5,294.7,0.6,2.0,21.8,0.48,20.9,23.7,"13:50:16",1
"22/09/26","14:10",0.0,31.6,53.4,1009.3,230.1,1.8,3.6,215.7,0.47,21.0,23.9,"14:07:36",1
"22/09/26","14:20",0.0,30.6,52.8,1008.8,276.7,1.0,2.7,355.1,0.15,19.9,23.9,"14:18:48",1
"22/09/26","14:30",0.0,30.6,55.6,1008.1,4.3,0.7,2.7,347.6,0.27,20.7,24.2,"14:22:40",1
"22/09/26","14:40",0.0,30.5,54.0,1008.3,215.8,1.7,3.1,213.3,0.26,20.2,24.2,"14:36:24",1
"22/09/26","14:50",0.0,30.2,54.8,1007.8,189.0,0.7,2.2,221.2,0.16,20.1,24.2,"14:48:08",1
"22/09/26","15:00",0.0,29.9,54.8,1007.6,154.4,0.5,1.2,116.0,0.09,19.9,24.3,"14:57:52",1
"22/09/26","15:10",0.0,31.0,53.0,1007.8,115.4,0.6,1.7,116.7,0.37,20.3,24.5,"15:04:40",1
"22/09/26","15:20",0.0,32.3,48.4,1008.1,171.8,0.6,1.6,132.5,0.35,20.1,24.4,"15:16:16",1
"22/09/26","15:30",0.0,32.7,43.8,1008.6,320.1,0.7,2.2,341.1,0.32,18.8,24.4,"15:26:32",1
"22/09/26","15:40",0.0,32.7,43.9,1008.3,227.7,1.0,2.8,219.3,0.29,18.9,24.4,"15:38:56",1
"22/09/26","15:50",0.0,32.5,42.4,1008.1,252.9,0.7,2.2,237.0,0.27,18.1,24.6,"15:44:56",1
"22/09/26","16:00",0.0,32.1,45.3,1008.1,233.8,1.2,3.2,240.6,0.24,18.8,24.7,"15:54:00",1
"22/09/26","16:10",0.0,32.2,43.7,1008.6,249.5,0.8,2.7,222.0,0.22,18.3,24.7,"16:01:36",1
"22/09/26","16:20",0.0,32.4,40.6,1008.6,221.5,0.8,2.4,243.3,0.19,17.3,24.7,"16:18:24",1
"22/09/26","16:30",0.0,32.4,46.1,1008.3,231.5,0.6,1.9,215.8,0.16,19.4,24.6,"16:24:56",1
"22/09/26","16:40",0.0,32.7,42.3,1008.1,301.0,0.6,1.9,347.6,0.14,18.3,24.7,"16:39:20",1
"22/09/26","16:50",0.0,32.6,42.6,1008.3,350.4,0.8,1.6,340.5,0.12,18.3,24.7,"16:48:48",1
"22/09/26","17:00",0.0,32.4,44.3,1007.6,306.0,0.7,1.8,345.0,0.09,18.7,24.8,"16:57:36",1
"22/09/26","17:10",0.0,31.7,47.4,1007.8,306.2,1.0,2.5,224.5,0.07,19.2,24.8,"17:09:04",1
"22/09/26","17:20",0.0,31.4,49.2,1007.6,296.4,0.7,1.8,237.0,0.05,19.5,24.6,"17:15:44",1
"22/09/26","17:30",0.0,30.9,51.9,1007.4,308.9,0.8,2.2,338.8,0.03,19.9,24.8,"17:28:48",1
"22/09/26","17:40",0.0,29.9,55.5,1006.9,310.0,0.6,1.2,302.9,0.02,20.1,24.8,"17:34:56",1
"22/09/26","17:50",0.0,29.3,57.8,1006.7,330.4,1.0,1.8,330.5,0.01,20.2,24.9,"17:48:24",1
"22/09/26","18:00",0.0,28.0,60.3,1006.2,316.0,1.1,1.9,325.4,0.00,19.6,24.9,"17:53:52",1
"22/09/26","18:10",0.0,26.9,63.0,1005.7,309.7,1.1,2.4,330.9,0.00,19.3,24.7,"18:09:04",1
"22/09/26","18:20",0.0,26.3,64.7,1006.4,316.2,1.1,2.7,350.2,0.00,19.2,24.7,"18:13:12",1
"22/09/26","18:30",0.0,25.8,66.9,1006.7,307.9,1.3,2.8,315.4,0.00,19.2,24.7,"18:28:24",1
"22/09/26","18:40",0.0,25.3,68.0,1007.1,305.4,0.7,2.6,345.2,0.00,19.0,24.7,"18:30:48",1
"22/09/26","18:50",0.0,25.2,68.4,1007.4,318.9,1.5,3.2,351.2,0.00,19.0,24.7,"18:48:16",1
"22/09/26","19:00",0.0,25.4,67.9,1007.6,307.9,2.0,4.7,319.9,0.00,19.1,24.7,"18:56:08",1
"22/09/26","19:10",0.0,25.4,67.1,1007.8,337.9,2.5,5.7,320.3,0.00,18.9,24.7,"19:06:24",1
"22/09/26","19:20",0.0,25.4,66.5,1008.1,330.1,2.3,5.1,336.2,0.00,18.7,24.6,"19:10:32",1
"22/09/26","19:30",0.0,25.2,66.5,1008.1,318.4,1.6,5.0,347.9,0.00,18.6,24.7,"19:26:24",1
"22/09/26","19:40",0.0,25.0,67.2,1008.6,297.2,1.1,2.6,271.7,0.00,18.5,24.6,"19:30:32",1
"22/09/26","19:50",0.0,24.5,68.3,1008.8,298.1,0.7,1.3,318.4,0.00,18.3,24.4,"19:44:56",1
"22/09/26","20:00",0.0,24.3,69.6,1008.8,325.5,1.1,2.1,342.3,0.00,18.4,24.4,"19:59:36",1
"22/09/26","20:10",0.0,24.0,70.8,1008.8,338.5,1.7,2.7,343.2,0.00,18.4,24.6,"20:09:20",1
"22/09/26","20:20",0.0,23.9,72.7,1009.0,341.2,1.8,2.8,341.7,0.00,18.7,24.4,"20:14:16",1
"22/09/26","20:30",0.0,23.9,73.8,1009.3,335.3,2.1,3.6,347.1,0.00,19.0,24.4,"20:26:56",1
"22/09/26","20:40",0.0,24.1,73.5,1009.0,327.5,2.3,4.3,341.3,0.00,19.1,24.2,"20:36:32",1
"22/09/26","20:50",0.0,24.0,72.7,1009.3,331.3,2.2,3.7,336.4,0.00,18.8,24.2,"20:41:20",1
"22/09/26","21:00",0.0,23.9,72.2,1009.5,329.8,1.7,3.4,349.4,0.00,18.6,24.3,"20:56:24",1
"22/09/26","21:10",0.0,23.6,72.7,1009.7,335.2,2.0,2.9,340.8,0.00,18.5,24.2,"21:04:08",1
"22/09/26","21:20",0.0,23.5,72.5,1009.7,332.8,2.2,3.6,348.8,0.00,18.3,24.1,"21:16:08",1
"22/09/26","21:30",0.0,23.5,72.2,1009.7,334.2,2.1,4.5,330.5,0.00,18.2,24.0,"21:22:08",1
"22/09/26","21:40",0.0,23.0,74.0,1009.5,340.9,1.6,2.6,339.0,0.00,18.2,24.1,"21:30:08",1
"22/09/26","21:50",0.0,22.6,75.7,1009.7,326.7,1.5,2.1,336.8,0.00,18.1,23.9,"21:41:52",1
"22/09/26","22:00",0.0,22.3,77.0,1009.7,322.3,1.5,2.4,338.6,0.00,18.1,24.0,"21:58:40",1
"22/09/26","22:10",0.0,22.1,78.0,1009.7,329.0,1.6,2.4,327.3,0.00,18.1,24.0,"22:05:44",1
"22/09/26","22:20",0.0,22.1,77.2,1009.7,331.2,1.6,2.8,343.2,0.00,18.0,24.2,"22:11:36",1
"22/09/26","22:30",0.0,22.4,76.0,1010.0,337.8,1.5,2.6,320.6,0.00,18.0,24.0,"22:21:20",1
"22/09/26","22:40",0.0,22.3,76.5,1010.0,345.6,1.2,2.4,349.2,0.00,18.0,23.9,"22:35:44",1
"22/09/26","22:50",0.0,22.0,77.6,1009.7,336.7,1.5,2.4,330.1,0.00,17.9,23.9,"22:44:56",1
"22/09/26","23:00",0.0,21.6,78.7,1009.7,326.3,1.5,2.5,336.8,0.00,17.8,23.9,"22:58:56",1
"22/09/26","23:10",0.0,21.6,79.2,1009.5,334.8,2.0,3.3,342.4,0.00,17.9,23.8,"23:03:12",1
"22/09/26","23:20",0.0,21.5,79.3,1010.0,332.7,2.0,3.5,340.3,0.00,17.8,23.9,"23:12:32",1
"22/09/26","23:30",0.0,21.6,79.3,1010.2,326.5,1.8,3.1,347.4,0.00,17.9,23.6,"23:20:16",1
"22/09/26","23:40",0.0,21.4,80.0,1010.0,330.6,1.7,2.6,328.6,0.00,17.8,23.6,"23:32:08",1
"22/09/26","23:50",0.0,21.3,80.4,1010.2,328.9,1.5,2.7,344.3,0.00,17.8,23.7,"23:48:56",1
"22/09/26","24:00",0.0,21.2,80.7,1010.0,319.3,1.6,2.1,338.2,0.00,17.8,23.5,"23:50:02",1
